| time (UTC) | temp F | wind direction | speed knots | gust knots | rain 1hr in | rain 24hr in | rain mn in | humidity % | barometer mb |
| 20260506070529 | 56 | 45 | 7.0 | 11.3 | 0.00 | 0.00 | 0.00 | 75 | 1011.7 |
| 20260506062101 | 57 | 45 | 8.7 | 11.3 | 0.00 | 0.00 | 0.00 | 75 | 1011.8 |
| 20260506061522 | 57 | 45 | 8.7 | 12.2 | 0.00 | 0.00 | 0.00 | 78 | 1011.9 |
| 20260506061021 | 57 | 45 | 8.7 | 13.0 | 0.00 | 0.00 | 0.00 | 77 | 1011.8 |
| 20260506060522 | 57 | 45 | 11.3 | 14.8 | 0.00 | 0.00 | 0.00 | 76 | 1011.6 |
| 20260506051043 | 57 | 45 | 11.3 | 13.9 | 0.00 | 0.00 | 0.00 | 77 | 1011.9 |
| 20260506050525 | 57 | 45 | 8.7 | 13.0 | 0.00 | 0.00 | 0.00 | 77 | 1012.0 |
| 20260506045021 | 58 | 45 | 10.4 | 14.8 | 0.00 | 0.00 | 0.00 | 76 | 1011.8 |
| 20260506044521 | 58 | 45 | 11.3 | 15.6 | 0.00 | 0.00 | 0.00 | 77 | 1011.9 |
| 20260506044041 | 58 | 45 | 10.4 | 16.5 | 0.00 | 0.00 | 0.00 | 77 | 1011.8 |
| 20260506043521 | 58 | 45 | 11.3 | 15.6 | 0.00 | 0.00 | 0.00 | 77 | 1011.9 |
| 20260506043021 | 58 | 45 | 12.2 | 15.6 | 0.00 | 0.00 | 0.00 | 76 | 1011.9 |
| 20260506042541 | 58 | 45 | 10.4 | 13.9 | 0.00 | 0.00 | 0.00 | 77 | 1011.9 |
| 20260506042021 | 58 | 45 | 8.7 | 12.2 | 0.00 | 0.00 | 0.00 | 77 | 1011.8 |
| 20260506041521 | 58 | 45 | 9.6 | 13.0 | 0.00 | 0.00 | 0.00 | 77 | 1011.8 |
| 20260506041021 | 58 | 68 | 8.7 | 15.6 | 0.00 | 0.00 | 0.00 | 77 | 1011.7 |
| 20260506040521 | 58 | 45 | 11.3 | 14.8 | 0.00 | 0.00 | 0.00 | 77 | 1011.6 |
| 20260506040021 | 59 | 68 | 10.4 | 14.8 | 0.00 | 0.00 | 0.00 | 78 | 1011.6 |
| 20260506035521 | 59 | 68 | 11.3 | 15.6 | 0.00 | 0.00 | 0.00 | 80 | 1011.6 |
| 20260506035041 | 59 | 68 | 10.4 | 15.6 | 0.00 | 0.00 | 0.00 | 78 | 1011.6 |
| 20260506034521 | 59 | 68 | 8.7 | 13.9 | 0.00 | 0.00 | 0.00 | 78 | 1011.7 |
| 20260506034021 | 59 | 45 | 9.6 | 16.5 | 0.00 | 0.00 | 0.00 | 78 | 1011.8 |
| 20260506033521 | 59 | 68 | 10.4 | 15.6 | 0.00 | 0.00 | 0.00 | 78 | 1011.6 |
| 20260506033041 | 59 | 68 | 10.4 | 15.6 | 0.00 | 0.00 | 0.00 | 77 | 1011.5 |
| 20260506032521 | 59 | 45 | 7.8 | 13.9 | 0.00 | 0.00 | 0.00 | 77 | 1011.6 |
| 20260506032021 | 59 | 45 | 8.7 | 13.0 | 0.00 | 0.00 | 0.00 | 78 | 1011.4 |
| 20260506031541 | 60 | 68 | 7.0 | 12.2 | 0.00 | 0.00 | 0.00 | 78 | 1011.4 |
| 20260506031021 | 60 | 68 | 5.2 | 12.2 | 0.00 | 0.00 | 0.00 | 79 | 1011.3 |
| 20260506030541 | 60 | 68 | 7.8 | 13.0 | 0.00 | 0.00 | 0.00 | 79 | 1011.1 |
| 20260506030042 | 60 | 68 | 9.6 | 13.9 | 0.00 | 0.00 | 0.00 | 80 | 1011.0 |
| 20260506025521 | 60 | 68 | 11.3 | 14.8 | 0.00 | 0.00 | 0.00 | 79 | 1011.1 |
| 20260506025021 | 60 | 68 | 10.4 | 14.8 | 0.00 | 0.00 | 0.00 | 79 | 1010.9 |
| 20260506024521 | 60 | 68 | 8.7 | 13.9 | 0.00 | 0.00 | 0.00 | 80 | 1010.8 |
| 20260506024021 | 60 | 68 | 7.8 | 13.9 | 0.00 | 0.00 | 0.00 | 79 | 1010.6 |
| 20260506023521 | 60 | 68 | 9.6 | 13.9 | 0.00 | 0.00 | 0.00 | 80 | 1010.5 |
| 20260506023020 | 60 | 68 | 12.2 | 16.5 | 0.00 | 0.00 | 0.00 | 79 | 1010.5 |
| 20260506022601 | 60 | 68 | 8.7 | 12.2 | 0.00 | 0.00 | 0.00 | 81 | 1010.1 |
| 20260506022021 | 60 | 68 | 11.3 | 14.8 | 0.00 | 0.00 | 0.00 | 80 | 1009.6 |
| 20260506021755 | 61 | 68 | 12.2 | 16.5 | 0.00 | 0.00 | 0.00 | 81 | 1009.1 |
| 20260506021021 | 61 | 68 | 12.2 | 16.5 | 0.00 | 0.00 | 0.00 | 82 | 1008.9 |
| 20260506020521 | 61 | 68 | 11.3 | 15.6 | 0.00 | 0.00 | 0.00 | 81 | 1009.0 |
| 20260506020021 | 61 | 68 | 12.2 | 17.4 | 0.00 | 0.00 | 0.00 | 81 | 1008.9 |
| 20260506015521 | 61 | 68 | 11.3 | 15.6 | 0.00 | 0.00 | 0.00 | 80 | 1008.6 |
| 20260506015021 | 61 | 68 | 13.9 | 18.2 | 0.00 | 0.00 | 0.00 | 80 | 1008.7 |
| 20260506014601 | 61 | 68 | 10.4 | 18.2 | 0.00 | 0.00 | 0.00 | 81 | 1008.7 |
| 20260506014021 | 61 | 68 | 10.4 | 15.6 | 0.00 | 0.00 | 0.00 | 79 | 1008.7 |
| 20260506013521 | 62 | 68 | 11.3 | 15.6 | 0.00 | 0.00 | 0.00 | 79 | 1008.5 |
| 20260506013020 | 62 | 45 | 8.7 | 16.5 | 0.00 | 0.00 | 0.00 | 79 | 1008.2 |
| 20260506012601 | 62 | 68 | 10.4 | 17.4 | 0.00 | 0.00 | 0.00 | 79 | 1008.3 |
| 20260506012021 | 63 | 68 | 12.2 | 17.4 | 0.00 | 0.00 | 0.00 | 79 | 1008.1 |
| 20260506011521 | 63 | 68 | 13.0 | 18.2 | 0.00 | 0.00 | 0.00 | 79 | 1008.1 |
| 20260506011041 | 63 | 68 | 12.2 | 19.1 | 0.00 | 0.00 | 0.00 | 79 | 1008.0 |
| 20260506010521 | 63 | 68 | 10.4 | 16.5 | 0.00 | 0.00 | 0.00 | 79 | 1007.8 |
| 20260506010021 | 63 | 45 | 8.7 | 16.5 | 0.00 | 0.00 | 0.00 | 78 | 1007.7 |
| 20260506005521 | 64 | 68 | 10.4 | 17.4 | 0.00 | 0.00 | 0.00 | 77 | 1007.9 |
| 20260506005021 | 64 | 45 | 9.6 | 15.6 | 0.00 | 0.00 | 0.00 | 76 | 1008.1 |
| 20260506004521 | 64 | 45 | 11.3 | 16.5 | 0.00 | 0.00 | 0.00 | 76 | 1007.9 |
| 20260506004021 | 65 | 45 | 8.7 | 14.8 | 0.00 | 0.00 | 0.00 | 77 | 1008.0 |
| 20260506003521 | 65 | 45 | 9.6 | 13.9 | 0.00 | 0.00 | 0.00 | 75 | 1007.7 |
| 20260506003041 | 66 | 68 | 12.2 | 16.5 | 0.00 | 0.00 | 0.00 | 75 | 1007.6 |
| 20260506002521 | 66 | 68 | 13.9 | 18.2 | 0.00 | 0.00 | 0.00 | 75 | 1007.6 |
| 20260506002021 | 67 | 68 | 13.0 | 18.2 | 0.00 | 0.00 | 0.00 | 75 | 1007.6 |
| 20260506001520 | 67 | 45 | 13.0 | 17.4 | 0.00 | 0.00 | 0.00 | 75 | 1007.6 |
| 20260506001021 | 68 | 23 | 7.8 | 16.5 | 0.00 | 0.00 | 0.00 | 73 | 1007.5 |
| 20260506000521 | 68 | 45 | 9.6 | 17.4 | 0.00 | 0.00 | 0.00 | 74 | 1007.5 |
| 20260506000020 | 68 | 45 | 12.2 | 15.6 | 0.00 | 0.00 | 0.00 | 74 | 1007.3 |
| 20260505235521 | 69 | 45 | 9.6 | 15.6 | 0.00 | 0.00 | 0.00 | 74 | 1007.0 |
| 20260505235022 | 69 | 23 | 7.0 | 12.2 | 0.00 | 0.00 | 0.00 | 73 | 1007.4 |
| 20260505234541 | 69 | 338 | 6.1 | 10.4 | 0.00 | 0.00 | 0.00 | 74 | 1007.6 |
| 20260505234022 | 69 | 338 | 7.0 | 12.2 | 0.00 | 0.00 | 0.00 | 73 | 1007.4 |
| 20260505233521 | 69 | 338 | 6.1 | 11.3 | 0.00 | 0.00 | 0.00 | 73 | 1007.3 |
| 20260505233041 | 69 | 0 | 7.0 | 12.2 | 0.00 | 0.00 | 0.00 | 73 | 1007.3 |
| 20260505232520 | 69 | 0 | 7.0 | 13.0 | 0.00 | 0.00 | 0.00 | 73 | 1007.1 |
| 20260505232021 | 69 | 338 | 7.8 | 14.8 | 0.00 | 0.00 | 0.00 | 73 | 1007.0 |
| 20260505231521 | 69 | 338 | 7.0 | 13.9 | 0.00 | 0.00 | 0.00 | 73 | 1007.1 |
| 20260505231020 | 70 | 0 | 10.4 | 16.5 | 0.00 | 0.00 | 0.00 | 72 | 1007.4 |
| 20260505230520 | 70 | 338 | 8.7 | 16.5 | 0.00 | 0.00 | 0.00 | 71 | 1007.1 |
| 20260505230021 | 71 | 0 | 7.8 | 12.2 | 0.00 | 0.00 | 0.00 | 71 | 1007.1 |
| 20260505225520 | 71 | 338 | 7.0 | 12.2 | 0.00 | 0.00 | 0.00 | 71 | 1007.2 |
| 20260505225020 | 71 | 338 | 6.1 | 13.0 | 0.00 | 0.00 | 0.00 | 71 | 1007.2 |
| 20260505224520 | 71 | 338 | 7.8 | 13.0 | 0.00 | 0.00 | 0.00 | 69 | 1007.2 |
| 20260505224020 | 72 | 315 | 5.2 | 10.4 | 0.00 | 0.00 | 0.00 | 70 | 1006.9 |
| 20260505223521 | 72 | 315 | 7.8 | 12.2 | 0.00 | 0.00 | 0.00 | 70 | 1007.0 |
| 20260505223021 | 72 | 315 | 7.8 | 15.6 | 0.00 | 0.00 | 0.00 | 70 | 1006.9 |
| 20260505222520 | 72 | 315 | 7.8 | 15.6 | 0.00 | 0.00 | 0.00 | 70 | 1006.6 |
| 20260505222040 | 73 | 338 | 8.7 | 15.6 | 0.00 | 0.00 | 0.00 | 68 | 1006.7 |
| 20260505221541 | 73 | 338 | 5.2 | 10.4 | 0.00 | 0.00 | 0.00 | 70 | 1006.5 |
| 20260505221041 | 73 | 315 | 7.0 | 13.0 | 0.00 | 0.00 | 0.00 | 69 | 1006.5 |
| 20260505220521 | 73 | 315 | 4.3 | 9.6 | 0.00 | 0.00 | 0.00 | 69 | 1006.4 |
| 20260505220041 | 74 | 315 | 6.1 | 11.3 | 0.00 | 0.00 | 0.00 | 69 | 1006.4 |
| 20260505215520 | 74 | 338 | 6.1 | 12.2 | 0.00 | 0.00 | 0.00 | 69 | 1006.3 |
| 20260505215020 | 74 | 338 | 6.1 | 13.9 | 0.00 | 0.00 | 0.00 | 69 | 1006.2 |
| 20260505214520 | 74 | 338 | 7.0 | 13.9 | 0.00 | 0.00 | 0.00 | 68 | 1006.1 |
| 20260505214020 | 74 | 338 | 7.8 | 13.9 | 0.00 | 0.00 | 0.00 | 68 | 1006.2 |
| 20260505213540 | 75 | 315 | 6.1 | 12.2 | 0.00 | 0.00 | 0.00 | 68 | 1006.2 |
| 20260505213021 | 75 | 315 | 7.8 | 13.9 | 0.00 | 0.00 | 0.00 | 67 | 1006.1 |
| 20260505212521 | 76 | 338 | 7.0 | 13.0 | 0.00 | 0.00 | 0.00 | 67 | 1006.0 |
| 20260505212021 | 76 | 315 | 6.1 | 13.9 | 0.00 | 0.00 | 0.00 | 67 | 1006.1 |
| 20260505211521 | 77 | 338 | 4.3 | 10.4 | 0.00 | 0.00 | 0.00 | 67 | 1006.1 |
| 20260505211020 | 77 | 315 | 5.2 | 10.4 | 0.00 | 0.00 | 0.00 | 65 | 1006.3 |
| 20260505210521 | 77 | 338 | 4.3 | 11.3 | 0.00 | 0.00 | 0.00 | 65 | 1006.3 |
| 20260505210021 | 78 | 293 | 6.1 | 10.4 | 0.00 | 0.00 | 0.00 | 64 | 1006.3 |
| 20260505205520 | 78 | 315 | 5.2 | 11.3 | 0.00 | 0.00 | 0.00 | 63 | 1006.3 |
| 20260505205020 | 79 | 315 | 5.2 | 10.4 | 0.00 | 0.00 | 0.00 | 62 | 1006.4 |
| 20260505204522 | 80 | 315 | 6.1 | 14.8 | 0.00 | 0.00 | 0.00 | 61 | 1006.4 |
| 20260505204020 | 80 | 293 | 6.1 | 12.2 | 0.00 | 0.00 | 0.00 | 61 | 1006.4 |
| 20260505203520 | 80 | 315 | 6.1 | 13.9 | 0.00 | 0.00 | 0.00 | 61 | 1006.2 |
| 20260505203042 | 81 | 293 | 8.7 | 14.8 | 0.00 | 0.00 | 0.00 | 58 | 1006.1 |
| 20260505202523 | 81 | 293 | 9.6 | 15.6 | 0.00 | 0.00 | 0.00 | 57 | 1006.2 |
| 20260505202041 | 81 | 315 | 7.0 | 15.6 | 0.00 | 0.00 | 0.00 | 57 | 1006.1 |
| 20260505201524 | 81 | 315 | 7.8 | 14.8 | 0.00 | 0.00 | 0.00 | 56 | 1006.1 |
| 20260505201022 | 82 | 315 | 7.8 | 14.8 | 0.00 | 0.00 | 0.00 | 54 | 1006.2 |
| 20260505200522 | 82 | 293 | 7.8 | 15.6 | 0.00 | 0.00 | 0.00 | 55 | 1006.1 |
| 20260505200021 | 82 | 315 | 7.0 | 13.9 | 0.00 | 0.00 | 0.00 | 52 | 1006.1 |
| 20260505195522 | 83 | 270 | 6.1 | 13.0 | 0.00 | 0.00 | 0.00 | 52 | 1006.0 |
| 20260505195020 | 82 | 293 | 5.2 | 10.4 | 0.00 | 0.00 | 0.00 | 51 | 1006.0 |
| 20260505194522 | 83 | 293 | 6.1 | 13.0 | 0.00 | 0.00 | 0.00 | 49 | 1005.9 |
| 20260505194024 | 83 | 270 | 5.2 | 9.6 | 0.00 | 0.00 | 0.00 | 48 | 1005.8 |
| 20260505193522 | 82 | 293 | 6.1 | 13.0 | 0.00 | 0.00 | 0.00 | 46 | 1005.9 |
| 20260505193022 | 82 | 293 | 7.0 | 12.2 | 0.00 | 0.00 | 0.00 | 47 | 1005.9 |
| 20260505192523 | 82 | 293 | 6.1 | 15.6 | 0.00 | 0.00 | 0.00 | 48 | 1005.9 |
| 20260505192022 | 82 | 293 | 5.2 | 12.2 | 0.00 | 0.00 | 0.00 | 48 | 1005.8 |
| 20260505191521 | 81 | 293 | 7.8 | 14.8 | 0.00 | 0.00 | 0.00 | 47 | 1005.7 |
| 20260505191022 | 82 | 293 | 8.7 | 15.6 | 0.00 | 0.00 | 0.00 | 47 | 1005.8 |
| 20260505190523 | 84 | 270 | 8.7 | 16.5 | 0.00 | 0.00 | 0.00 | 50 | 1005.7 |
| 20260505190025 | 84 | 225 | 7.8 | 14.8 | 0.00 | 0.00 | 0.00 | 59 | 1005.5 |
| 20260505185523 | 84 | 248 | 8.7 | 14.8 | 0.00 | 0.00 | 0.00 | 59 | 1005.4 |
| 20260505185103 | 84 | 248 | 7.0 | 13.0 | 0.00 | 0.00 | 0.00 | 60 | 1005.2 |
| 20260505184522 | 84 | 248 | 8.7 | 18.2 | 0.00 | 0.00 | 0.00 | 59 | 1005.3 |
| 20260505184022 | 84 | 225 | 9.6 | 16.5 | 0.00 | 0.00 | 0.00 | 58 | 1005.2 |
| 20260505183526 | 84 | 248 | 9.6 | 16.5 | 0.00 | 0.00 | 0.00 | 57 | 1005.3 |
| 20260505183047 | 84 | 225 | 7.8 | 18.2 | 0.00 | 0.00 | 0.00 | 59 | 1005.2 |
| 20260505182523 | 84 | 225 | 7.8 | 11.3 | 0.00 | 0.00 | 0.00 | 63 | 1005.2 |
| 20260505182103 | 83 | 225 | 6.1 | 12.2 | 0.00 | 0.00 | 0.00 | 65 | 1005.2 |
| 20260505181525 | 83 | 225 | 6.1 | 10.4 | 0.00 | 0.00 | 0.00 | 65 | 1005.1 |
| 20260505181043 | 82 | 225 | 7.8 | 13.9 | 0.00 | 0.00 | 0.00 | 65 | 1005.2 |
| 20260505180523 | 82 | 225 | 7.8 | 12.2 | 0.00 | 0.00 | 0.00 | 66 | 1005.4 |
| 20260505180025 | 82 | 225 | 7.8 | 14.8 | 0.00 | 0.00 | 0.00 | 66 | 1005.3 |
| 20260505175523 | 82 | 225 | 8.7 | 13.9 | 0.00 | 0.00 | 0.00 | 65 | 1005.4 |
| 20260505175043 | 81 | 225 | 9.6 | 15.6 | 0.00 | 0.00 | 0.00 | 65 | 1005.4 |
| 20260505174522 | 81 | 225 | 11.3 | 17.4 | 0.00 | 0.00 | 0.00 | 66 | 1005.2 |
| 20260505174024 | 81 | 225 | 10.4 | 17.4 | 0.00 | 0.00 | 0.00 | 65 | 1005.2 |
| 20260505173522 | 82 | 225 | 7.8 | 14.8 | 0.00 | 0.00 | 0.00 | 66 | 1005.2 |
| 20260505173022 | 82 | 225 | 9.6 | 14.8 | 0.00 | 0.00 | 0.00 | 66 | 1005.2 |
| 20260505172522 | 81 | 225 | 13.0 | 18.2 | 0.00 | 0.00 | 0.00 | 65 | 1005.3 |
| 20260505172022 | 81 | 225 | 10.4 | 17.4 | 0.00 | 0.00 | 0.00 | 65 | 1005.4 |
| 20260505171557 | 81 | 225 | 10.4 | 16.5 | 0.00 | 0.00 | 0.00 | 67 | 1005.5 |
| 20260505171042 | 81 | 225 | 12.2 | 19.1 | 0.00 | 0.00 | 0.00 | 66 | 1004.9 |
| 20260505170522 | 81 | 225 | 9.6 | 16.5 | 0.00 | 0.00 | 0.00 | 67 | 1004.8 |
| 20260505170022 | 80 | 225 | 10.4 | 19.1 | 0.00 | 0.00 | 0.00 | 68 | 1005.0 |
| 20260505165522 | 80 | 225 | 11.3 | 19.1 | 0.00 | 0.00 | 0.00 | 68 | 1005.3 |
| 20260505165022 | 80 | 225 | 9.6 | 14.8 | 0.00 | 0.00 | 0.00 | 68 | 1005.2 |
| 20260505164522 | 80 | 225 | 8.7 | 15.6 | 0.00 | 0.00 | 0.00 | 69 | 1005.0 |
| 20260505164023 | 80 | 225 | 7.0 | 14.8 | 0.00 | 0.00 | 0.00 | 70 | 1004.9 |
| 20260505163522 | 79 | 225 | 7.8 | 14.8 | 0.00 | 0.00 | 0.00 | 71 | 1004.8 |
| 20260505163022 | 79 | 225 | 8.7 | 13.9 | 0.00 | 0.00 | 0.00 | 71 | 1004.9 |
| 20260505162522 | 78 | 225 | 7.8 | 13.0 | 0.00 | 0.00 | 0.00 | 71 | 1004.9 |
| 20260505162023 | 78 | 225 | 9.6 | 16.5 | 0.00 | 0.00 | 0.00 | 71 | 1005.0 |
| 20260505161542 | 78 | 225 | 7.8 | 13.9 | 0.00 | 0.00 | 0.00 | 71 | 1004.8 |
| 20260505161043 | 78 | 225 | 8.7 | 14.8 | 0.00 | 0.00 | 0.00 | 71 | 1004.8 |
| 20260505160522 | 78 | 225 | 8.7 | 15.6 | 0.00 | 0.00 | 0.00 | 72 | 1004.8 |
| 20260505153022 | 77 | 225 | 9.6 | 17.4 | 0.00 | 0.00 | 0.00 | 74 | 1004.4 |
| 20260505152522 | 77 | 225 | 11.3 | 16.5 | 0.00 | 0.00 | 0.00 | 73 | 1004.4 |
| 20260505152023 | 77 | 225 | 10.4 | 19.1 | 0.00 | 0.00 | 0.00 | 73 | 1004.5 |
| 20260505151704 | 77 | 225 | 10.4 | 19.1 | 0.00 | 0.00 | 0.00 | 74 | 1004.5 |
| 20260505151022 | 77 | 225 | 12.2 | 17.4 | 0.00 | 0.00 | 0.00 | 73 | 1004.4 |
| 20260505150522 | 77 | 225 | 10.4 | 20.0 | 0.00 | 0.00 | 0.00 | 74 | 1004.4 |
| 20260505140523 | 73 | 225 | 7.0 | 13.0 | 0.00 | 0.00 | 0.00 | 81 | 1004.3 |
| 20260505125023 | 70 | 225 | 6.1 | 11.3 | 0.00 | 0.00 | 0.00 | 86 | 1004.0 |
| 20260505124522 | 70 | 225 | 5.2 | 12.2 | 0.00 | 0.00 | 0.00 | 86 | 1003.9 |
| 20260505124022 | 70 | 225 | 6.1 | 10.4 | 0.00 | 0.00 | 0.00 | 87 | 1003.9 |
| 20260505123542 | 69 | 225 | 6.1 | 10.4 | 0.00 | 0.00 | 0.00 | 87 | 1003.9 |
| 20260505123022 | 69 | 225 | 4.3 | 9.6 | 0.00 | 0.00 | 0.00 | 87 | 1003.8 |
| 20260505122521 | 69 | 203 | 4.3 | 8.7 | 0.00 | 0.00 | 0.00 | 87 | 1003.7 |
| 20260505122102 | 69 | 203 | 4.3 | 9.6 | 0.00 | 0.00 | 0.00 | 87 | 1003.7 |
| 20260505121522 | 69 | 203 | 6.1 | 13.9 | 0.00 | 0.00 | 0.00 | 87 | 1003.6 |
| 20260505121021 | 69 | 225 | 6.1 | 13.0 | 0.00 | 0.00 | 0.00 | 86 | 1003.5 |
| 20260505120544 | 69 | 203 | 6.1 | 13.0 | 0.00 | 0.00 | 0.00 | 87 | 1003.4 |
| 20260505120033 | 69 | 203 | 7.0 | 12.2 | 0.00 | 0.00 | 0.00 | 87 | 1003.4 |
| 20260505115521 | 69 | 225 | 7.0 | 11.3 | 0.00 | 0.00 | 0.00 | 87 | 1003.3 |
| 20260505115022 | 69 | 225 | 6.1 | 11.3 | 0.00 | 0.00 | 0.00 | 87 | 1003.3 |
| 20260505114522 | 69 | 203 | 6.1 | 13.9 | 0.00 | 0.00 | 0.00 | 86 | 1003.3 |
| 20260505114022 | 69 | 180 | 5.2 | 10.4 | 0.00 | 0.00 | 0.00 | 86 | 1003.3 |
| 20260505113522 | 69 | 203 | 6.1 | 14.8 | 0.00 | 0.00 | 0.00 | 86 | 1003.2 |
| 20260505113021 | 69 | 203 | 6.1 | 17.4 | 0.00 | 0.00 | 0.00 | 86 | 1003.2 |
| 20260505112522 | 69 | 203 | 5.2 | 11.3 | 0.00 | 0.00 | 0.00 | 86 | 1003.3 |
| 20260505112043 | 69 | 203 | 5.2 | 10.4 | 0.00 | 0.00 | 0.00 | 86 | 1003.3 |
| 20260505111522 | 69 | 203 | 6.1 | 13.9 | 0.00 | 0.00 | 0.00 | 85 | 1003.4 |
| 20260505111022 | 70 | 225 | 4.3 | 9.6 | 0.00 | 0.00 | 0.00 | 85 | 1003.5 |
| 20260505110522 | 70 | 203 | 5.2 | 11.3 | 0.00 | 0.00 | 0.00 | 85 | 1003.4 |
| 20260505102024 | 71 | 225 | 7.8 | 16.5 | 0.00 | 0.00 | 0.00 | 83 | 1003.4 |
| 20260505101521 | 71 | 225 | 7.0 | 14.8 | 0.00 | 0.00 | 0.00 | 82 | 1003.3 |
| 20260505101022 | 71 | 225 | 6.1 | 10.4 | 0.00 | 0.00 | 0.00 | 82 | 1003.6 |
| 20260505100525 | 71 | 203 | 7.0 | 13.0 | 0.00 | 0.00 | 0.00 | 81 | 1003.6 |
| 20260505100022 | 71 | 203 | 7.0 | 15.6 | 0.00 | 0.00 | 0.00 | 81 | 1003.7 |
| 20260505095607 | 71 | 203 | 7.0 | 13.9 | 0.00 | 0.00 | 0.00 | 81 | 1003.4 |
| 20260505095041 | 71 | 203 | 7.8 | 15.6 | 0.00 | 0.00 | 0.00 | 81 | 1003.4 |
| 20260505094522 | 72 | 225 | 8.7 | 17.4 | 0.00 | 0.00 | 0.00 | 80 | 1003.2 |
| 20260505094102 | 72 | 225 | 9.6 | 17.4 | 0.00 | 0.00 | 0.00 | 80 | 1003.2 |
| 20260505093801 | 72 | 203 | 10.4 | 20.0 | 0.00 | 0.00 | 0.00 | 79 | 1003.2 |
| 20260505093758 | 72 | 203 | 9.6 | 19.1 | 0.00 | 0.00 | 0.00 | 79 | 1003.3 |
| 20260505091027 | 72 | 203 | 9.6 | 17.4 | 0.00 | 0.00 | 0.00 | 78 | 1003.3 |
| 20260505090522 | 72 | 203 | 11.3 | 22.6 | 0.00 | 0.00 | 0.00 | 78 | 1003.4 |
| 20260505090022 | 72 | 225 | 9.6 | 18.2 | 0.00 | 0.00 | 0.00 | 78 | 1003.5 |
| 20260505085543 | 72 | 203 | 7.8 | 16.5 | 0.00 | 0.00 | 0.00 | 77 | 1003.5 |
| 20260505085022 | 72 | 203 | 9.6 | 17.4 | 0.00 | 0.00 | 0.00 | 77 | 1003.5 |
| 20260505084522 | 73 | 225 | 9.6 | 17.4 | 0.00 | 0.00 | 0.00 | 77 | 1003.7 |
| 20260505084042 | 73 | 225 | 10.4 | 19.1 | 0.00 | 0.00 | 0.00 | 77 | 1003.6 |
| 20260505083521 | 73 | 203 | 9.6 | 19.1 | 0.00 | 0.00 | 0.00 | 77 | 1003.4 |
| 20260505083022 | 73 | 203 | 9.6 | 20.0 | 0.00 | 0.00 | 0.00 | 77 | 1003.5 |
| 20260505082542 | 73 | 225 | 9.6 | 17.4 | 0.00 | 0.00 | 0.00 | 76 | 1003.4 |
| 20260505082022 | 73 | 203 | 9.6 | 19.1 | 0.00 | 0.00 | 0.00 | 76 | 1003.4 |
| 20260505081521 | 73 | 203 | 10.4 | 18.2 | 0.00 | 0.00 | 0.00 | 76 | 1003.5 |
| 20260505081021 | 73 | 203 | 9.6 | 20.0 | 0.00 | 0.00 | 0.00 | 75 | 1003.5 |
| 20260505080521 | 73 | 225 | 9.6 | 17.4 | 0.00 | 0.00 | 0.00 | 75 | 1003.5 |
| 20260505080021 | 74 | 225 | 11.3 | 20.9 | 0.00 | 0.00 | 0.00 | 75 | 1003.5 |
| 20260505075521 | 74 | 203 | 9.6 | 19.1 | 0.00 | 0.00 | 0.00 | 75 | 1003.6 |
| 20260505075041 | 74 | 203 | 11.3 | 23.5 | 0.00 | 0.00 | 0.00 | 75 | 1003.7 |
| 20260505074521 | 74 | 225 | 10.4 | 17.4 | 0.00 | 0.00 | 0.00 | 75 | 1003.8 |
| 20260505074022 | 74 | 225 | 11.3 | 24.3 | 0.00 | 0.00 | 0.00 | 74 | 1003.9 |
| 20260505073521 | 74 | 203 | 10.4 | 19.1 | 0.00 | 0.00 | 0.00 | 74 | 1004.0 |
| 20260505073021 | 74 | 203 | 11.3 | 19.1 | 0.00 | 0.00 | 0.00 | 74 | 1004.0 |
| 20260505072521 | 74 | 225 | 11.3 | 20.0 | 0.00 | 0.00 | 0.00 | 74 | 1004.1 |
| 20260505072021 | 74 | 203 | 12.2 | 20.9 | 0.00 | 0.00 | 0.00 | 74 | 1004.3 |
| 20260505071521 | 74 | 225 | 11.3 | 19.1 | 0.00 | 0.00 | 0.00 | 74 | 1004.3 |
| 20260505071021 | 74 | 225 | 12.2 | 20.0 | 0.00 | 0.00 | 0.00 | 73 | 1004.4 |